Regional Weather Roundup
Issued by NWS

Home | Current Version | Previous Version | Graphics & Text | Print | Product List | Glossary On
Versions: 1 2 3 4 5 6 7 8 9 10 11 12 13 14 15 16 17 18 19 20 21 22 23 24 25 26 27 28 29 30 31 32 33 34 35 36 37 38 39 40 41 42 43 44 45 46 47 48 49 50
000
ASUS43 KLMK 231510
RWRKY
KENTUCKY REGIONAL WEATHER ROUNDUP
NATIONAL WEATHER SERVICE LOUISVILLE KY
1100 AM EDT THU OCT 23 2014

NOTE "FAIR" INDICATES FEW OR NO CLOUDS BELOW 12,000 FEET
WITH NO SIGNIFICANT WEATHER AND/OR OBSTRUCTIONS TO VISIBILITY.

KYZ001>023-026-027-061>063-070>075-231600-
WESTERN AND SOUTH CENTRAL KENTUCKY

CITY           SKY/WX    TMP DP  RH WIND       PRES   REMARKS
PADUCAH        SUNNY     53  45  74 SE6       30.25R
HENDERSON      SUNNY    N/A N/A N/A SE6       30.26R
OWENSBORO      SUNNY     52  43  71 SE10      30.25F
HOPKINSVILLE   SUNNY     53  44  71 E13       30.23S
BOWLING GREEN  SUNNY     51  43  74 NE8       30.25F
GLASGOW        SUNNY     52  42  70 E5        30.24S
$$

KYZ024-025-028>034-038-045-046-053-231600-
NORTH CENTRAL KENTUCKY

CITY           SKY/WX    TMP DP  RH WIND       PRES   REMARKS
LOUISVILLE/SDF MOSUNNY   52  41  66 SW9       30.26S
LOUISVILLE/LOU SUNNY     52  41  66 CALM      30.26F
FORT KNOX      SUNNY     50  41  69 E5        30.24F
$$

KYZ035>037-039>044-047>052-055>060-089>105-231600-
NORTHEAST KENTUCKY

CITY           SKY/WX    TMP DP  RH WIND       PRES   REMARKS
LEXINGTON      MOSUNNY   55  40  56 E5        30.25S
COVINGTON      MOSUNNY   52  40  63 N3        30.26R
FRANKFORT      SUNNY     52  40  63 E6        30.25S
$$

KYZ054-064>069-076>088-106>120-231600-
SOUTHEAST KENTUCKY

CITY           SKY/WX    TMP DP  RH WIND       PRES   REMARKS
JACKSON        CLOUDY    51  40  65 CALM      30.24R
LONDON         MOSUNNY   52  38  58 VRB5      30.24R
SOMERSET       MOSUNNY   48  37  66 E5        30.26R
MIDDLESBORO    CLOUDY    50  40  67 CALM      30.24S
MONTICELLO     MOSUNNY   53  41  64 E9        30.25S
$$




USA.gov is the U.S. government's official web portal to all federal, state and local government web resources and services.